Location: Poughquag
(41.6090°N, 73.6820°W)
Time: 08:53:14
(UTC-05:00)

Altair - Pass Details

Date: 02 December 2023
Orbit: 1501 x 1682 km, 47.2° (Epoch: 02 March)

Event Time Altitude Azimuth Distance (km) Brightness Sun altitude
Rises 09:13:46 0° 240° (WSW) 4,817 10.0 17.5°
Reaches altitude 10° 09:16:55 10° 240° (WSW) 3,809 9.6 17.9°
Maximum altitude 09:26:36 87° 152° (SSE) 1,560 8.0 18.9°
Drops below altitude 10° 09:35:56 10° 65° (ENE) 3,686 9.7 19.8°
Sets 09:38:56 0° 65° (ENE) 4,656 10.1 20.1°
